GW6916 Weather Reports


time (UTC)temp
F
wind
direction
speed
knots
gust
knots
rain 1hr
in
rain 24hr
in
rain mn
in
humidity
%
barometer
mb
20260509022318 60 152 0.0 0.0 0.00 0.00 0.00 84 1014.5
20260509021814 60 152 0.0 0.0 0.00 0.00 0.00 85 1014.4
20260509021312 60 152 0.0 0.0 0.00 0.00 0.00 84 1014.6
20260509020809 60 153 0.0 0.0 0.00 0.00 0.00 84 1014.6
20260509020307 60 127 0.0 0.9 0.00 0.00 0.00 85 1014.8
20260509015804 60 125 0.0 0.0 0.00 0.00 0.00 84 1014.4
20260509015306 60 125 0.0 0.0 0.00 0.00 0.00 84 1014.6
20260509014758 61 125 0.0 0.0 0.00 0.00 0.00 83 1014.2
20260509014256 61 125 0.0 0.0 0.00 0.00 0.00 83 1014.4
20260509013752 61 125 0.0 0.0 0.00 0.00 0.00 83 1014.5
20260509013248 61 124 0.0 0.0 0.00 0.00 0.00 82 1014.3
20260509012745 61 125 0.0 0.0 0.00 0.00 0.00 81 1014.2
20260509012241 62 124 0.0 0.0 0.00 0.00 0.00 81 1014.6
20260509011739 62 129 0.0 0.0 0.00 0.00 0.00 81 1014.0
20260509011237 62 140 0.0 0.9 0.00 0.00 0.00 80 1013.9
20260509010735 62 119 0.9 0.9 0.00 0.00 0.00 80 1014.0
20260509010231 62 77 0.0 0.0 0.00 0.00 0.00 79 1014.1
20260509005729 62 169 0.0 0.0 0.00 0.00 0.00 80 1014.1
20260509005226 62 169 0.0 0.0 0.00 0.00 0.00 79 1014.1
20260509004725 62 169 0.0 0.0 0.00 0.00 0.00 78 1014.0
20260509004223 63 169 0.0 0.0 0.00 0.00 0.00 77 1014.0
20260509003721 63 169 0.0 0.0 0.00 0.00 0.00 76 1013.8
20260509003218 63 184 0.0 0.0 0.00 0.00 0.00 76 1014.0
20260509002715 63 183 0.0 0.0 0.00 0.00 0.00 75 1013.9
20260509002213 63 184 0.0 0.0 0.00 0.00 0.00 75 1014.0
20260509001710 63 184 0.0 0.0 0.00 0.00 0.00 74 1014.0
20260509001206 63 183 0.9 0.9 0.00 0.00 0.00 74 1014.1
20260509000704 63 184 0.0 0.9 0.00 0.00 0.00 74 1014.1
20260509000201 64 184 0.0 0.9 0.00 0.00 0.00 74 1013.9
20260508235658 64 184 0.9 0.9 0.00 0.00 0.00 73 1014.1
20260508235155 64 184 0.9 0.9 0.00 0.00 0.00 73 1014.0
20260508234652 64 184 0.9 0.9 0.00 0.00 0.00 72 1013.8
20260508234148 65 184 0.0 0.9 0.00 0.00 0.00 71 1013.8
20260508233648 65 184 0.0 0.9 0.00 0.00 0.00 70 1013.8
20260508233145 65 184 0.9 1.7 0.00 0.00 0.00 70 1014.0
20260508232642 66 183 0.0 0.0 0.00 0.00 0.00 69 1014.0
20260508232139 66 183 0.9 0.9 0.00 0.00 0.00 68 1014.0
20260508231637 66 176 0.0 0.9 0.00 0.00 0.00 68 1013.9
20260508231133 66 178 0.9 1.7 0.00 0.00 0.00 66 1013.8
20260508230629 66 160 0.9 0.9 0.00 0.00 0.00 66 1013.9
20260508230126 66 153 2.6 2.6 0.00 0.00 0.00 65 1014.0
20260508225625 66 169 0.0 0.0 0.00 0.00 0.00 65 1014.0
20260508225120 66 173 1.7 1.7 0.00 0.00 0.00 65 1014.0
20260508224618 67 187 0.9 0.9 0.00 0.00 0.00 65 1013.9
20260508224115 67 168 1.7 1.7 0.00 0.00 0.00 64 1013.9
20260508223613 67 171 2.6 2.6 0.00 0.00 0.00 62 1013.9
20260508223110 67 181 1.7 1.7 0.00 0.00 0.00 61 1013.8
20260508222607 67 172 2.6 2.6 0.00 0.00 0.00 60 1013.8
20260508222104 68 161 2.6 4.3 0.00 0.00 0.00 59 1013.9
20260508221601 68 184 0.9 1.7 0.00 0.00 0.00 60 1014.2
20260508221057 68 168 1.7 1.7 0.00 0.00 0.00 60 1013.9
20260508220553 68 163 2.6 2.6 0.00 0.00 0.00 59 1014.0
20260508220049 68 168 4.3 5.2 0.00 0.00 0.00 58 1013.8
20260508215547 68 168 4.3 6.1 0.00 0.00 0.00 58 1013.9
20260508215043 68 183 3.5 4.3 0.00 0.00 0.00 57 1013.8
20260508214541 68 180 1.7 1.7 0.00 0.00 0.00 56 1013.7
20260508214037 68 170 2.6 4.3 0.00 0.00 0.00 56 1013.8
20260508213535 68 162 2.6 2.6 0.00 0.00 0.00 56 1013.7
20260508213030 68 179 2.6 2.6 0.00 0.00 0.00 57 1013.7
20260508212527 68 192 2.6 2.6 0.00 0.00 0.00 56 1013.6
20260508212023 69 152 5.2 6.1 0.00 0.00 0.00 54 1013.9
20260508211519 69 188 3.5 4.3 0.00 0.00 0.00 54 1013.8
20260508211015 69 164 3.5 4.3 0.00 0.00 0.00 54 1014.0
20260508210512 68 187 3.5 4.3 0.00 0.00 0.00 54 1014.0
20260508210010 68 180 5.2 6.1 0.00 0.00 0.00 53 1014.1
20260508205506 69 176 3.5 5.2 0.00 0.00 0.00 54 1014.1
20260508205002 69 132 2.6 2.6 0.00 0.00 0.00 54 1014.2
20260508204459 69 146 4.3 6.1 0.00 0.00 0.00 52 1014.1
20260508203955 70 180 1.7 1.7 0.00 0.00 0.00 53 1014.1
20260508203451 69 166 1.7 1.7 0.00 0.00 0.00 51 1014.1
20260508202947 69 115 2.6 2.6 0.00 0.00 0.00 51 1014.0
20260508202444 69 171 2.6 4.3 0.00 0.00 0.00 52 1014.0
20260508201941 69 187 2.6 2.6 0.00 0.00 0.00 53 1014.0
20260508201438 70 152 6.1 7.0 0.00 0.00 0.00 52 1014.4
20260508200935 70 143 3.5 4.3 0.00 0.00 0.00 52 1014.3
20260508200432 70 168 2.6 2.6 0.00 0.00 0.00 52 1014.4
20260508195927 70 123 2.6 2.6 0.00 0.00 0.00 52 1014.5
20260508195424 71 150 5.2 6.1 0.00 0.00 0.00 52 1014.6
20260508194920 70 119 3.5 4.3 0.00 0.00 0.00 51 1014.6
20260508194417 71 181 0.0 0.9 0.00 0.00 0.00 51 1014.8
20260508193914 70 140 1.7 2.6 0.00 0.00 0.00 50 1014.6
20260508193411 70 139 2.6 2.6 0.00 0.00 0.00 50 1014.6
20260508192907 72 102 6.1 8.7 0.00 0.00 0.00 48 1014.8
20260508192404 71 175 3.5 4.3 0.00 0.00 0.00 49 1015.0
20260508191901 72 207 1.7 1.7 0.00 0.00 0.00 46 1015.2
20260508191359 70 191 0.9 1.7 0.00 0.00 0.00 50 1015.0
20260508190856 70 170 3.5 5.2 0.00 0.00 0.00 50 1015.2
20260508190352 71 180 2.6 2.6 0.00 0.00 0.00 48 1015.0
20260508185848 70 162 1.7 1.7 0.00 0.00 0.00 50 1015.4
20260508185346 69 121 2.6 4.3 0.00 0.00 0.00 50 1015.2
20260508184844 69 130 0.0 0.0 0.00 0.00 0.00 50 1015.4
20260508184341 69 166 3.5 4.3 0.00 0.00 0.00 50 1015.5
20260508183837 70 151 3.5 5.2 0.00 0.00 0.00 48 1015.6
20260508183334 71 153 1.7 1.7 0.00 0.00 0.00 47 1015.7
20260508182830 70 174 3.5 5.2 0.00 0.00 0.00 48 1015.7
20260508182327 73 173 1.7 2.6 0.00 0.00 0.00 46 1016.0
20260508181822 74 141 0.9 1.7 0.00 0.00 0.00 43 1016.0
20260508181319 70 153 0.9 0.9 0.00 0.00 0.00 47 1016.0
20260508180816 70 225 1.7 1.7 0.00 0.00 0.00 48 1016.0
20260508180313 69 148 3.5 5.2 0.00 0.00 0.00 51 1016.2
20260508175809 69 168 1.7 2.6 0.00 0.00 0.00 53 1016.2
20260508175306 69 185 3.5 6.1 0.00 0.00 0.00 52 1016.3
20260508174804 69 61 2.6 4.3 0.00 0.00 0.00 50 1016.3
20260508174301 68 130 0.0 0.0 0.00 0.00 0.00 52 1016.1
20260508173757 68 120 4.3 6.1 0.00 0.00 0.00 52 1016.6
20260508173254 69 105 2.6 4.3 0.00 0.00 0.00 49 1016.7
20260508172750 70 158 3.5 6.1 0.00 0.00 0.00 49 1016.6
20260508172248 69 209 2.6 5.2 0.00 0.00 0.00 50 1016.3
20260508171744 68 69 3.5 4.3 0.00 0.00 0.00 50 1016.5
20260508171240 67 123 1.7 1.7 0.00 0.00 0.00 52 1016.6
20260508170737 68 115 3.5 4.3 0.00 0.00 0.00 52 1016.8
20260508170235 68 169 6.1 7.8 0.00 0.00 0.00 51 1016.9
20260508165732 69 128 4.3 6.1 0.00 0.00 0.00 50 1017.1
20260508165229 67 171 4.3 5.2 0.00 0.00 0.00 52 1016.9
20260508164725 69 175 3.5 4.3 0.00 0.00 0.00 51 1017.0
20260508164222 67 117 4.3 6.1 0.00 0.00 0.00 54 1017.3
20260508163720 68 141 9.6 11.3 0.00 0.00 0.00 52 1017.3
20260508163217 67 224 2.6 4.3 0.00 0.00 0.00 53 1017.2
20260508162713 66 120 4.3 6.1 0.00 0.00 0.00 53 1017.5
20260508162210 66 135 7.8 8.7 0.00 0.00 0.00 54 1017.3
20260508161707 68 136 5.2 7.0 0.00 0.00 0.00 53 1017.6
20260508161204 67 103 3.5 4.3 0.00 0.00 0.00 53 1017.5
20260508160702 66 120 0.9 1.7 0.00 0.00 0.00 53 1017.7
20260508160200 66 156 1.7 2.6 0.00 0.00 0.00 53 1017.9
20260508155657 66 130 2.6 2.6 0.00 0.00 0.00 54 1018.0
20260508155153 66 157 4.3 5.2 0.00 0.00 0.00 54 1017.7
20260508154651 67 165 3.5 4.3 0.00 0.00 0.00 54 1017.7
20260508154148 67 235 4.3 5.2 0.00 0.00 0.00 53 1017.8
20260508153644 67 226 2.6 2.6 0.00 0.00 0.00 53 1017.8
20260508153141 66 49 2.6 2.6 0.00 0.00 0.00 54 1017.9
20260508152638 65 107 0.0 0.0 0.00 0.00 0.00 55 1018.2
20260508152133 66 83 2.6 4.3 0.00 0.00 0.00 56 1018.3
20260508151630 65 52 0.9 1.7 0.00 0.00 0.00 54 1018.3
20260508151127 65 144 1.7 1.7 0.00 0.00 0.00 56 1018.5
20260508150624 65 323 2.6 2.6 0.00 0.00 0.00 54 1018.2
20260508150120 64 79 3.5 4.3 0.00 0.00 0.00 55 1018.0
20260508145616 64 125 1.7 1.7 0.00 0.00 0.00 57 1018.1
20260508145113 65 68 3.5 5.2 0.00 0.00 0.00 58 1018.2
20260508144611 62 110 2.6 2.6 0.00 0.00 0.00 59 1018.2
20260508144108 62 59 4.3 5.2 0.00 0.00 0.00 60 1018.2
20260508143606 64 104 0.0 0.9 0.00 0.00 0.00 59 1018.2
20260508143102 62 141 0.0 0.9 0.00 0.00 0.00 61 1018.0
20260508142559 63 126 3.5 4.3 0.00 0.00 0.00 61 1018.1
20260508142055 62 60 3.5 4.3 0.00 0.00 0.00 63 1018.0
20260508141552 61 153 4.3 6.1 0.00 0.00 0.00 64 1018.2
20260508141049 60 140 3.5 4.3 0.00 0.00 0.00 65 1018.0
20260508140547 61 140 6.1 6.1 0.00 0.00 0.00 65 1018.2
20260508140043 61 77 0.9 2.6 0.00 0.00 0.00 69 1018.5
20260508135538 60 101 2.6 2.6 0.00 0.00 0.00 71 1018.5
20260508135035 60 122 3.5 4.3 0.00 0.00 0.00 71 1018.3
20260508134532 60 174 2.6 4.3 0.00 0.00 0.00 72 1018.8
20260508134029 60 34 2.6 2.6 0.00 0.00 0.00 73 1018.6
20260508133526 60 60 0.9 1.7 0.00 0.00 0.00 72 1018.8
20260508133023 59 51 0.9 0.9 0.00 0.00 0.00 73 1018.5
20260508132521 58 83 0.9 0.9 0.00 0.00 0.00 74 1018.5
20260508132017 59 350 2.6 4.3 0.00 0.00 0.00 71 1018.3
20260508131512 58 1 1.7 1.7 0.00 0.00 0.00 74 1018.5
20260508131009 57 53 0.9 0.9 0.00 0.00 0.00 75 1018.6
20260508130507 57 61 2.6 4.3 0.00 0.00 0.00 74 1018.6
20260508130002 57 36 0.9 1.7 0.00 0.00 0.00 74 1018.5
20260508125458 57 37 2.6 2.6 0.00 0.00 0.00 76 1018.4
20260508124956 57 85 0.0 0.9 0.00 0.00 0.00 76 1018.3
20260508124454 56 342 2.6 2.6 0.00 0.00 0.00 77 1018.2
20260508123951 56 11 4.3 5.2 0.00 0.00 0.00 77 1017.9
20260508123450 56 326 3.5 4.3 0.00 0.00 0.00 78 1018.0
20260508122946 55 340 0.9 0.9 0.00 0.00 0.00 78 1017.6
20260508122443 55 117 0.9 0.9 0.00 0.00 0.00 80 1017.7
20260508121940 54 335 1.7 1.7 0.00 0.00 0.00 81 1017.7
20260508121438 54 355 1.7 2.6 0.00 0.00 0.00 81 1017.4
20260508120936 54 2 2.6 2.6 0.00 0.00 0.00 81 1017.7
20260508120433 54 344 0.9 0.9 0.00 0.00 0.00 81 1017.6
20260508115931 54 295 1.7 1.7 0.00 0.00 0.00 81 1017.7
20260508115429 54 29 0.9 0.9 0.00 0.00 0.00 82 1017.5
20260508114925 53 39 0.9 1.7 0.00 0.00 0.00 84 1017.3
20260508114422 52 48 0.9 1.7 0.00 0.00 0.00 86 1017.2
20260508113918 52 6 0.9 1.7 0.00 0.00 0.00 88 1017.3
20260508113416 51 50 0.9 0.9 0.00 0.00 0.00 88 1017.2
20260508112913 51 60 0.9 0.9 0.00 0.00 0.00 89 1017.0
20260508112410 51 61 0.9 1.7 0.00 0.00 0.00 89 1017.0
20260508111906 51 116 0.9 0.9 0.00 0.00 0.00 89 1017.1
20260508111404 51 94 0.0 0.9 0.00 0.00 0.00 89 1016.7
20260508110901 51 15 2.6 2.6 0.00 0.00 0.00 89 1016.4
20260508110358 50 21 2.6 2.6 0.00 0.00 0.00 90 1016.5
20260508105858 50 334 0.9 1.7 0.00 0.00 0.00 91 1016.2
20260508105354 50 17 2.6 2.6 0.00 0.00 0.00 91 1016.3
20260508104852 50 353 2.6 2.6 0.00 0.00 0.00 91 1016.2
20260508104348 50 22 2.6 2.6 0.00 0.00 0.00 92 1016.1
20260508103846 50 70 0.9 1.7 0.00 0.00 0.00 92 1016.0
20260508103343 50 39 0.9 1.7 0.00 0.00 0.00 92 1015.8
20260508102840 50 33 1.7 1.7 0.00 0.00 0.00 92 1015.8
20260508102338 50 18 1.7 1.7 0.00 0.00 0.00 92 1015.6
20260508101835 50 66 0.9 0.9 0.00 0.00 0.00 91 1015.6
20260508101333 50 67 0.9 0.9 0.00 0.00 0.00 91 1015.4
20260508100830 50 32 0.9 0.9 0.00 0.00 0.00 90 1015.5
20260508100329 50 11 1.7 1.7 0.00 0.00 0.00 90 1015.3
20260508095824 50 42 0.9 0.9 0.00 0.00 0.00 90 1015.5
20260508095322 51 80 0.9 0.9 0.00 0.00 0.00 89 1015.3
20260508094819 51 79 0.9 0.9 0.00 0.00 0.00 87 1015.3
20260508094315 52 41 1.7 1.7 0.00 0.00 0.00 86 1015.3
20260508093812 53 128 0.0 0.0 0.00 0.00 0.00 83 1015.2
20260508093310 53 316 2.6 2.6 0.00 0.00 0.00 83 1014.9
20260508092807 53 307 3.5 4.3 0.00 0.00 0.00 83 1015.0
20260508092312 53 280 2.6 4.3 0.00 0.00 0.00 83 1014.8
20260508091803 53 310 1.7 1.7 0.00 0.00 0.00 83 1014.7
20260508091259 53 305 2.6 2.6 0.00 0.00 0.00 83 1014.9
20260508090757 53 300 2.6 2.6 0.00 0.00 0.00 85 1014.9
20260508090255 53 289 0.9 1.7 0.00 0.00 0.00 85 1014.7
20260508085750 53 141 0.0 0.0 0.00 0.00 0.00 86 1014.6
20260508085248 53 56 0.9 0.9 0.00 0.00 0.00 84 1014.8
20260508084743 54 319 1.7 1.7 0.00 0.00 0.00 82 1014.8
20260508084242 54 288 3.5 4.3 0.00 0.00 0.00 81 1014.7
20260508083739 54 282 2.6 2.6 0.00 0.00 0.00 82 1014.4
20260508083237 53 306 1.7 2.6 0.00 0.00 0.00 83 1014.4
20260508082736 53 307 3.5 4.3 0.00 0.00 0.00 84 1014.5
20260508082235 53 341 0.9 1.7 0.00 0.00 0.00 86 1014.6
20260508081731 53 347 1.7 2.6 0.00 0.00 0.00 85 1014.6
20260508081228 53 233 0.9 0.9 0.00 0.00 0.00 87 1014.6
20260508080725 53 277 0.9 0.9 0.00 0.00 0.00 88 1014.7
20260508080223 53 313 0.9 0.9 0.00 0.00 0.00 88 1014.8
20260508075719 53 117 0.0 0.9 0.00 0.00 0.00 89 1014.7
20260508075216 53 195 0.0 0.0 0.00 0.00 0.00 88 1014.6
20260508074714 52 298 1.7 1.7 0.00 0.00 0.00 89 1014.4
20260508074212 52 213 0.0 0.9 0.00 0.00 0.00 89 1014.4
20260508073708 53 209 0.0 0.0 0.00 0.00 0.00 87 1014.6
20260508073207 53 222 0.9 0.9 0.00 0.00 0.00 86 1014.6
20260508072702 54 215 0.0 0.9 0.00 0.00 0.00 86 1014.7
20260508072159 54 311 0.9 0.9 0.00 0.00 0.00 85 1014.6
20260508071656 54 280 3.5 4.3 0.00 0.00 0.00 85 1014.5
20260508071155 54 276 2.6 2.6 0.00 0.00 0.00 85 1014.7
20260508070652 54 275 3.5 5.2 0.00 0.00 0.00 85 1014.9
20260508070150 54 275 2.6 2.6 0.00 0.00 0.00 86 1014.6
20260508065647 54 221 0.9 0.9 0.00 0.00 0.00 86 1014.9
20260508065145 54 245 2.6 2.6 0.00 0.00 0.00 86 1014.6
20260508064642 53 288 2.6 2.6 0.00 0.00 0.00 87 1014.7
20260508064140 53 249 0.9 1.7 0.00 0.00 0.00 88 1014.8
20260508063637 54 254 0.9 1.7 0.00 0.00 0.00 87 1014.6
20260508063135 54 203 0.0 0.0 0.00 0.00 0.00 86 1014.6
20260508062633 53 271 0.9 1.7 0.00 0.00 0.00 88 1014.4
20260508062129 52 227 0.9 0.9 0.00 0.00 0.00 90 1014.7
20260508061626 52 214 0.9 0.9 0.00 0.00 0.00 92 1014.7
20260508061124 52 208 0.0 0.0 0.00 0.00 0.00 91 1014.6
20260508060620 52 208 0.0 0.0 0.00 0.00 0.00 91 1014.6
20260508060118 52 203 0.0 0.0 0.00 0.00 0.00 91 1014.6
20260508055613 53 203 0.0 0.0 0.00 0.00 0.00 91 1014.7
20260508055110 53 200 0.0 0.9 0.00 0.00 0.00 91 1014.6
20260508054607 52 200 0.0 0.0 0.00 0.00 0.00 91 1014.7
20260508054104 53 200 0.0 0.0 0.00 0.00 0.00 91 1014.8
20260508053600 53 200 0.9 0.9 0.00 0.00 0.00 90 1014.6
20260508053059 53 198 0.0 0.0 0.00 0.00 0.00 89 1014.8
20260508052556 53 200 0.9 0.9 0.00 0.00 0.00 89 1014.7
20260508052053 53 196 0.9 0.9 0.00 0.00 0.00 89 1014.9
20260508051549 54 197 0.9 0.9 0.00 0.00 0.00 89 1014.7
20260508051044 54 198 0.9 0.9 0.00 0.00 0.00 88 1014.8
20260508050541 54 199 0.0 0.0 0.00 0.00 0.00 87 1014.5
20260508050038 54 199 0.0 0.9 0.00 0.00 0.00 87 1014.6
20260508045534 55 199 0.9 0.9 0.00 0.00 0.00 86 1014.7
20260508045032 55 198 0.9 0.9 0.00 0.00 0.00 86 1014.5
20260508044529 55 156 0.0 0.9 0.00 0.00 0.00 86 1014.6
20260508044025 55 109 0.0 0.0 0.00 0.00 0.00 85 1014.6
20260508043522 55 126 0.0 0.9 0.00 0.00 0.00 84 1014.5
20260508043019 56 120 0.0 0.0 0.00 0.00 0.00 83 1014.4
20260508042516 56 163 0.0 0.0 0.00 0.00 0.00 82 1014.3
20260508042013 57 226 0.9 0.9 0.00 0.00 0.00 81 1014.3
20260508041510 57 252 1.7 1.7 0.00 0.00 0.00 80 1014.1
20260508041006 57 232 1.7 1.7 0.00 0.00 0.00 80 1014.3
20260508040504 57 215 2.6 2.6 0.00 0.00 0.00 80 1014.3
20260508040001 57 279 2.6 4.3 0.00 1.01 1.01 79 1014.3
20260508035458 57 231 1.7 1.7 0.00 1.01 1.01 80 1014.1
20260508034954 57 269 1.7 1.7 0.00 1.01 1.01 79 1014.4
20260508034452 57 247 1.7 1.7 0.00 1.01 1.01 78 1014.1
20260508033948 58 236 1.7 1.7 0.00 1.01 1.01 78 1014.2
20260508033447 58 244 1.7 2.6 0.00 1.01 1.01 78 1014.0
20260508032944 58 234 0.9 0.9 0.00 1.01 1.01 77 1014.1
20260508032441 58 201 1.7 1.7 0.00 1.01 1.01 77 1014.0
20260508031938 58 235 1.7 2.6 0.00 1.01 1.01 76 1014.3
20260508031435 59 292 2.6 2.6 0.00 1.01 1.01 76 1014.3
20260508030930 59 236 2.6 2.6 0.00 1.01 1.01 76 1014.3
20260508030428 59 241 1.7 1.7 0.00 1.01 1.01 76 1014.1
20260508025925 59 249 2.6 2.6 0.00 1.01 1.01 76 1014.5
20260508025422 59 236 2.6 2.6 0.00 1.01 1.01 75 1014.1
20260508024919 59 258 1.7 1.7 0.00 1.01 1.01 75 1014.0
20260508024416 59 256 1.7 1.7 0.00 1.01 1.01 75 1014.1
20260508023912 59 187 0.9 1.7 0.00 1.01 1.01 76 1014.1
20260508023409 59 194 0.0 0.9 0.00 1.01 1.01 75 1013.5
20260508022906 59 189 0.9 0.9 0.00 1.01 1.01 74 1013.8